STARLINK-32403, 61629

Orbit data source: Space-Track

STARLINK-32403, 61629 is a payload satellite owned by SpaceX/Seattle (US) in LEO that was launched on Wed, 23 Oct 2024 UTC via an FALCON 9 launch vehicle from the Air Force Eastern Test Range (AFETR). Payload-class satellites include a variety of spacecraft equipped with specific instruments for various scientific and technological missions. These include communications satellites like Starlink; space stations such as the ISS; scientific satellites like the Hubble; Earth observation satellites from companies like Planet Labs, Umbra, and HawkEye 360; GPS; miniature CubeSats for education and research; and military/defense satellites.

Loading next visibility...
Identifier
61629, 2024-191J
Orbit
LEO
Country
Flag of USUS
Related business
Manufacturer
SpaceX/Seattle
Mission
Operational Commercial Communications
Bus & Motor
STARLINK V2M, Unknown motor
Mass
730 kg wet, ~700 kg dry
Launch date (UTC)
2024-10-23 (1 year ago)
Launch vehicle
FALCON 9
Launch site
Air Force Eastern Test Range (AFETR)
Object type
Payload
Rocket body
Debris
Shape & HBR
Box + 2 Pan, 17.7 m
Radar Cross Section
33.884 m², Large (>1 m²)

Expand to show TLE details & history
Last TLE update: 15 hours ago

TLE from 15 hours ago
0 STARLINK-32403
1 61629U 24191J   25303.68165490 -.00006778  00000-0 -23726-3 0  9996
2 61629  43.0070 168.6967 0000727 257.5222 102.5548 15.27545183 57653
Epoch: 2025-10-30T16:21Z
TLE epoch observation values (Epoch: 2025-10-30T16:21:34.983Z)
Latitude
-0.00004°
Longitude
-115.93605°
Altitude
483.038 km
Speed
7.626 km/s
True Right ascension
11h 14m 47s
True Declination
0° 00' 00"
Sunlit
Object was in daylight at epoch
Visualization orbit readout
Latitude
Unknown
Longitude
Unknown
Altitude
Unknown
Speed
Unknown
Apparent Right ascension
Unknown
Apparent Declination
Unknown
Sunlit
N/A
Visualization observer readout
Local Sidereal Time
02:51:52
Azimuth
Unknown
Elevation
Unknown
Doppler factor
Unknown
Orbital elements
Apogee altitude
485.596 km
Perigee altitude
484.598 km
Semi-major axis
6,863.234 km
Eccentricity
0.00007
Inclination
43.007°
RAAN
168.6967°
Arg. of periapsis
257.5222°
True anomaly
102.56293°
Mean anomaly
102.5548°
Eccentric anomaly
102.55887°
Mean motion
3.81724 °/min
Orbital period
94.31 mins
BSTAR
-0.00023726
Loading maneuver chart data...
Computing Atmospheric mass density...
Loading historical data...
Loading historical data...
Loading historical data...
Loading historical data...
Loading historical data...
Loading historical data...
Loading historical data...

Documentation

Showing up to 5 results
|